View from above orbital plane
|
View from above satellite
|
Ground track
|
The orbit data is extracted from the following two-line orbital elements,
1 14148U 83061B 13142.19973906 .00000347 00000-0 40293-4 0 3407
2 14148 082.5203 221.5242 0022330 187.2426 231.2352 14.82324765614470
| Epoch (UTC): | 22 May 2013 04:47:37 |
| Eccentricity: | 0.0022330 |
| inclination: | 82.5203° |
| perigee height: | 606 km |
| apogee height: | 637 km |
| right ascension of ascending node: | 221.5242° |
| argument of perigee: | 187.2426° |
| revolutions per day: | 14.82324765 |
| mean anomaly at epoch: | 231.2352° |
| orbit number at epoch: | 61447 |
The dashed part of the orbit path shows where the satellite is in the earth's shadow,
|
|